カタログに戻る

STARLINK-30435

運用中通信VLEO
NORAD 57842·PAYLOAD·🇺🇸 United States

打ち上げ Sep 12, 2023 から Vandenberg Space Force Base

Loading…

次のパス (今後24時間)

TLE

最新Source: CelesTrak SupGP

元期: Sep 14, 2026, 22:32 UTC

1 57842C 23141C   26257.93937500 -.00018376  00000+0 -59098-3 0  2572
2 57842  53.1570 123.7952 0001263  79.1622 105.1133 15.31708833    11

AllMySatでSTARLINK-30435をリアルタイム追跡

Download on the App Store